TITAN 3C TRANSTAGE DEB, 43448

Orbit data source: Space-Track

TITAN 3C TRANSTAGE DEB, 43448 is space debris in GEO originally from a launch on Sun, 09 Feb 1969 UTC launched from the Air Force Eastern Test Range (AFETR). Debris objects in space refer to the collection of defunct objects orbiting the Earth. Examples of debris include non-operational satellites, rocket bodies, and fragments generated from explosions, collisions, or faulty payload assembly.

Not visible in the next 10 days
Identifier
43448, 1969-013H
Orbit
GEO
Country
Flag of USUS
Related business
Manufacturer
Martin Marietta
Mission
Spacecraft
Bus & Motor
Unknown
Mass
Unknown
Launch date (UTC)
1969-02-09 (57 years ago)
Launch vehicle
Unknown
Launch site
Air Force Eastern Test Range (AFETR)
Object type
Payload
Rocket body
Debris
Shape & HBR
Unknown shape, 1.1 m
Radar Cross Section
RCS unknown

Expand to show TLE details & history
Last TLE update: 21 hours ago

TLE from 21 hours ago
0 TITAN 3C TRANSTAGE DEB
1 43448U 69013H   25305.86813657 -.00000119  00000-0  00000+0 0  9992
2 43448   0.6326 128.0437 0279720  14.1870 219.7888  0.98710681 27298
Epoch: 2025-11-01T20:50Z
TLE epoch observation values (Epoch: 2025-11-01T20:50:06.999Z)
Latitude
-0.47794°
Longitude
6.07719°
Altitude
37,158.047 km
Speed
2.993 km/s
True Right ascension
23h 59m 59s
True Declination
0° 28' 39"
Sunlit
Object was in daylight at epoch
Visualization orbit readout
Latitude
Unknown
Longitude
Unknown
Altitude
Unknown
Speed
Unknown
Apparent Right ascension
Unknown
Apparent Declination
Unknown
Sunlit
N/A
Visualization observer readout
Local Sidereal Time
13:32:10
Azimuth
Unknown
Elevation
Unknown
Doppler factor
Unknown
Orbital elements
Apogee altitude
37,422.912 km
Perigee altitude
35,039.183 km
Semi-major axis
42,609.184 km
Eccentricity
0.02797
Inclination
0.6326°
RAAN
128.0437°
Arg. of periapsis
14.187°
True anomaly
217.79163°
Mean anomaly
219.7888°
Eccentric anomaly
218.78489°
Mean motion
0.24677 °/min
Orbital period
1,458.86 mins
BSTAR
0
Loading maneuver chart data...
Computing Atmospheric mass density...

Documentation

Showing up to 5 results
|